[[{"header":{"parameterUnit":"m.s-1","parameterCategory":1,"la1":30.2991,"la2":30.254,"lo1":-89.0895,"lo2":-89.0444,"dy":0.0017,"dx":0.0017,"nx":28,"ny":28,"refTime":"2025-06-01T03:00:00:Z","depth":0,"parameterNumber":2,"parameterNumberName":"U-component_of_WINDS"},"data":[0,0,0,0,0,0,0,0,0,0,0,0,0,0,0,0,0,0,0,0,0,0,0,0,0,0,0,0,0,0,0,0,0,0,0,0,0,0,0,0,0,0,0,0,0,0,0,0,0,0,0,0,0,0,0,0,0,0,-3.1982,-3.1982,0,-3.1987,-3.1987,-3.1987,-3.192,-3.1918,-3.1917,-3.1915,-3.1921,-3.1922,-3.1924,0,0,0,0,0,0,0,0,0,0,0,0,0,-3.1917,-3.1919,-3.1982,-3.1982,-3.1982,-3.1987,-3.1987,-3.1987,-3.1921,-3.1918,-3.1916,-3.1914,-3.192,-3.1922,-3.1924,0,0,0,0,0,0,0,0,0,0,0,0,0,-3.1936,-3.1919,-3.1982,-3.195,-3.1947,-3.1987,-3.1987,-3.1987,-3.1921,-3.1918,-3.1916,-3.1913,-3.1919,-3.1922,-3.1925,-3.1996,0,0,-3.1933,-3.1934,0,0,0,0,0,0,0,0,-3.1935,-3.1939,-3.1954,-3.1952,-3.1949,-3.195,-3.1966,-3.199,-3.1922,-3.1931,-3.1915,-3.1912,-3.1933,-3.1934,-3.1941,-3.1997,-3.1997,-3.1933,-3.1935,-3.1936,-3.1937,0,0,0,0,0,0,0,-3.1934,-3.1938,-3.1984,-3.1955,-3.1951,-3.1935,-3.1935,-3.197,-3.1947,-3.193,-3.1925,-3.1927,-3.1931,-3.1939,-3.1941,-3.1997,-3.1933,-3.1936,-3.1938,-3.1939,-3.2113,-3.2115,0,0,0,0,0,0,-3.1937,-3.1937,-3.1984,-3.1984,-3.1935,-3.1939,-3.1938,-3.1953,-3.1946,-3.1943,-3.1929,-3.1923,-3.1935,-3.1938,-3.1941,-3.2025,-3.1936,-3.1939,-3.194,-3.211,-3.2113,-3.2116,0,0,0,0,0,0,-3.1936,-3.1942,-3.1984,-3.196,-3.1964,-3.1943,-3.1959,-3.1954,-3.1962,-3.1946,-3.1941,-3.1941,-3.1933,-3.1937,-3.1983,-3.2024,-3.194,-3.1943,-3.2106,-3.2111,-3.2115,-3.2193,0,0,0,0,0,0,-3.1934,-3.1942,-3.1968,-3.1961,-3.1965,-3.2026,-3.1962,-3.1956,-3.1967,-3.196,-3.1956,-3.1953,-3.1931,-3.1979,-3.1986,-3.2026,-3.1945,-3.2102,-3.2108,-3.2113,-3.2187,-3.22,-3.2211,0,0,0,0,0,-3.1932,-3.199,-3.197,-3.1976,-3.1998,-3.2028,-3.2031,-3.2005,-3.197,-3.1997,-3.1987,-3.1953,-3.2019,-3.1985,-3.1991,-3.2033,-3.21,-3.2107,-3.2113,-3.2182,-3.2197,-3.2211,0,0,0,0,0,0,-3.2003,-3.1988,-3.1966,-3.2023,-3.2027,-3.2017,-3.205,-3.2022,-3.2037,-3.2029,-3.1997,-3.1996,-3.2049,-3.2045,-3.2008,-3.2103,-3.2053,-3.2062,-3.2103,-3.2118,-3.213,-3.2129,-3.1947,0,0,0,0,0,-3.2025,-3.2051,-3.2037,-3.2088,-3.2092,-3.2071,-3.2083,-3.2063,-3.2066,-3.2068,-3.2061,-3.2066,-3.2087,-3.2102,-3.2121,-3.2186,-3.2185,-3.2219,-3.2231,-3.224,-3.2248,-3.2283,-3.2298,-3.2138,-3.2138,-3.2138,0,0,-3.2071,-3.2066,-3.2085,-3.2103,-3.2104,-3.2131,-3.2073,-3.2104,-3.2125,-3.2072,-3.2116,-3.2111,-3.2115,-3.2171,-3.2195,-3.217,-3.2292,-3.2249,-3.2257,-3.2259,-3.2292,-3.2307,-3.2321,-3.2143,-3.2142,-3.2141,0,0,-3.2169,-3.2168,-3.2212,-3.2214,-3.2217,-3.2202,-3.2213,-3.2207,-3.2202,-3.2245,-3.2207,-3.2231,-3.2269,-3.2273,-3.2281,-3.2382,-3.2352,-3.239,-3.2452,-3.2487,-3.25,-3.2511,-3.2548,-3.2562,-3.2397,-3.2397,-3.2398,0,-3.2227,-3.2266,-3.2238,-3.2272,-3.2282,-3.2236,-3.228,-3.2284,-3.2293,-3.2301,-3.2272,-3.232,-3.2318,-3.2376,-3.2401,-3.2408,-3.242,-3.239,-3.25,-3.2511,-3.2521,-3.2556,-3.257,-3.2402,-3.2402,-3.2401,-3.2401,0,-3.2337,-3.2366,-3.24,-3.241,-3.2424,-3.2463,-3.2441,-3.2458,-3.2437,-3.2426,-3.2471,-3.2469,-3.2487,-3.2499,-3.2479,-3.2554,-3.2538,-3.2506,-3.2455,-3.2541,-3.2574,-3.2587,-3.2409,-3.2407,-3.2406,-3.2404,0,0,-3.2479,-3.2473,-3.2487,-3.2491,-3.2491,-3.2513,-3.2551,-3.2569,-3.2584,-3.2592,-3.2624,-3.2658,-3.2628,-3.2636,-3.2616,-3.2647,-3.2729,-3.261,-3.261,-3.2633,-3.2813,-3.2838,-3.2854,-3.2709,-3.2711,-3.2713,-3.2813,0,-3.2575,-3.2639,-3.2615,-3.2681,-3.2707,-3.2665,-3.2698,-3.2702,-3.2693,-3.2715,-3.2705,-3.273,-3.2688,-3.2693,-3.2722,-3.2713,-3.2765,-3.2705,-3.2738,-3.274,-3.2739,-3.2871,-3.2897,-3.2991,-3.2825,-3.2827,-3.2829,0,-3.2695,-3.2709,-3.2778,-3.2774,-3.2784,-3.2815,-3.283,-3.2851,-3.2855,-3.2847,-3.2857,-3.283,-3.2868,-3.2818,-3.287,-3.283,-3.2842,-3.284,-3.2843,-3.2846,-3.279,-3.2877,-3.302,-3.3035,-3.2848,-3.2847,-3.2845,0,-3.2793,-3.2828,-3.2874,-3.2879,-3.2876,-3.2899,-3.2899,-3.29,-3.2913,-3.2926,-3.2934,-3.2952,-3.2962,-3.2977,-3.2957,-3.2922,-3.3012,-3.296,-3.3007,-3.3008,-3.3028,-3.3027,-3.3176,-3.3036,-3.3035,-3.3035,-3.3035,0,-3.2903,-3.2947,-3.2918,-3.2946,-3.2995,-3.2967,-3.3016,-3.3011,-3.3013,-3.304,-3.3005,-3.3031,-3.3002,-3.3026,-3.3011,-3.3057,-3.3062,-3.3056,-3.3052,-3.306,-3.3061,-3.3068,-3.3061,-3.3039,-3.3038,-3.3037,-3.3037,0,-3.302,-3.3002,-3.305,-3.3043,-3.3043,-3.3079,-3.3074,-3.31,-3.3089,-3.3125,-3.3131,-3.3115,-3.3141,-3.3122,-3.3149,-3.3138,-3.3199,-3.3185,-3.3198,-3.3194,-3.3243,-3.3239,-3.3402,-3.3422,-3.3268,-3.327,-3.3271,0,-3.3091,-3.3124,-3.3122,-3.3138,-3.314,-3.3165,-3.3179,-3.3153,-3.3168,-3.3177,-3.3202,-3.3226,-3.3243,-3.3288,-3.3279,-3.3299,-3.3286,-3.3341,-3.3289,-3.3296,-3.3287,-3.3286,-3.329,-3.3352,-3.3354,-3.3356,-3.3357,0,-3.322,-3.321,-3.323,-3.3248,-3.3265,-3.3278,-3.3287,-3.3302,-3.3277,-3.3296,-3.3323,-3.3336,-3.3364,-3.3388,-3.3405,-3.3406,-3.3378,-3.3374,-3.3386,-3.3394,-3.3401,-3.3399,-3.3228,-3.337,-3.3369,-3.3368,-3.3367,-3.3366,-3.3317,-3.3344,-3.3348,-3.3372,-3.3377,-3.3387,-3.3412,-3.3405,-3.3427,-3.3447,-3.3431,-3.3463,-3.3468,-3.3488,-3.3492,-3.3518,-3.3495,-3.3513,-3.3517,-3.3522,-3.3529,-3.3397,-3.3521,-3.352,-3.352,-3.352,-3.3519,0,-3.3444,-3.3444,-3.3467,-3.3482,-3.3502,-3.3473,-3.3483,-3.3501,-3.353,-3.3537,-3.3556,-3.3587,-3.3611,-3.3604,-3.3626,-3.3648,-3.3635,-3.3654,-3.3652,-3.3653,-3.3548,-3.3535,-3.3664,-3.3664,-3.3664,-3.3664,-3.3664,-3.3664,-3.3513,-3.3559,-3.355,-3.3598,-3.3598,-3.3629,-3.3638,-3.3648,-3.3653,-3.369,-3.371,-3.3705,-3.3707,-3.3728,-3.3749,-3.3747,-3.3757,-3.378,-3.3773,-3.3675,-3.3661,-3.3647,-3.3635,-3.3783,-3.3783,-3.3877,-3.3878,-3.3878]},{"header":{"parameterUnit":"m.s-1","parameterCategory":1,"la1":30.2991,"la2":30.254,"lo1":-89.0895,"lo2":-89.0444,"dy":0.0017,"dx":0.0017,"nx":28,"ny":28,"refTime":"2025-06-01T03:00:00:Z","depth":0,"parameterNumber":3,"parameterNumberName":"V-component_of_WINDS"},"data":[0,0,0,0,0,0,0,0,0,0,0,0,0,0,0,0,0,0,0,0,0,0,0,0,0,0,0,0,0,0,0,0,0,0,0,0,0,0,0,0,0,0,0,0,0,0,0,0,0,0,0,0,0,0,0,0,0,0,-0.3516,-0.3517,0,-0.3576,-0.3577,-0.3577,-0.3576,-0.3576,-0.3575,-0.3574,-0.3636,-0.3639,-0.3641,0,0,0,0,0,0,0,0,0,0,0,0,0,-0.3402,-0.3404,-0.3516,-0.3517,-0.3518,-0.3576,-0.3577,-0.3577,-0.3577,-0.3576,-0.3575,-0.3574,-0.3635,-0.3638,-0.3641,0,0,0,0,0,0,0,0,0,0,0,0,0,-0.3456,-0.3405,-0.3516,-0.3524,-0.3526,-0.3576,-0.3577,-0.3578,-0.3577,-0.3576,-0.3574,-0.3573,-0.3634,-0.3638,-0.3642,-0.3688,0,0,-0.3653,-0.3654,0,0,0,0,0,0,0,0,-0.3453,-0.346,-0.3522,-0.3524,-0.3525,-0.3567,-0.3559,-0.3615,-0.3577,-0.3557,-0.3574,-0.3573,-0.3614,-0.362,-0.3633,-0.3691,-0.3693,-0.3653,-0.3655,-0.3657,-0.3658,0,0,0,0,0,0,0,-0.3449,-0.3457,-0.354,-0.3523,-0.3525,-0.3525,-0.3531,-0.357,-0.3592,-0.3559,-0.3559,-0.3566,-0.3615,-0.363,-0.3635,-0.3694,-0.3653,-0.3656,-0.3658,-0.366,-0.3792,-0.3793,0,0,0,0,0,0,-0.3444,-0.3454,-0.3538,-0.3542,-0.3485,-0.3528,-0.3535,-0.3555,-0.3591,-0.3596,-0.3567,-0.3566,-0.3624,-0.3631,-0.3637,-0.3694,-0.3657,-0.366,-0.3662,-0.3791,-0.3792,-0.3794,0,0,0,0,0,0,-0.3441,-0.3451,-0.3536,-0.3498,-0.3509,-0.3531,-0.3554,-0.3557,-0.3572,-0.3598,-0.3602,-0.3578,-0.3624,-0.3632,-0.3675,-0.3696,-0.3662,-0.3665,-0.3789,-0.3791,-0.3793,-0.3807,0,0,0,0,0,0,-0.3438,-0.345,-0.3468,-0.3498,-0.3511,-0.3572,-0.3555,-0.3559,-0.3578,-0.3577,-0.3609,-0.3613,-0.3623,-0.367,-0.3679,-0.37,-0.3668,-0.3787,-0.379,-0.3793,-0.3805,-0.3809,-0.3813,0,0,0,0,0,-0.3434,-0.347,-0.3469,-0.3479,-0.3533,-0.3574,-0.3581,-0.3591,-0.358,-0.3598,-0.3614,-0.3612,-0.3692,-0.3674,-0.3684,-0.3707,-0.3786,-0.3789,-0.3792,-0.3803,-0.3809,-0.3813,0,0,0,0,0,0,-0.3441,-0.3474,-0.3473,-0.352,-0.3544,-0.3573,-0.3597,-0.3597,-0.3625,-0.3623,-0.3635,-0.3642,-0.3685,-0.37,-0.368,-0.3754,-0.3738,-0.3743,-0.3742,-0.3748,-0.3752,-0.3748,-0.3671,0,0,0,0,0,-0.3448,-0.3478,-0.3505,-0.3543,-0.3555,-0.3574,-0.3592,-0.3598,-0.3623,-0.3634,-0.3653,-0.3678,-0.3709,-0.3729,-0.3759,-0.3807,-0.3814,-0.3828,-0.3832,-0.3835,-0.384,-0.3866,-0.3873,-0.3804,-0.3804,-0.3804,0,0,-0.3463,-0.3485,-0.3503,-0.3545,-0.3565,-0.3596,-0.3583,-0.3616,-0.3639,-0.3639,-0.3681,-0.3696,-0.3725,-0.377,-0.3792,-0.3784,-0.386,-0.3839,-0.3841,-0.3844,-0.387,-0.3877,-0.3882,-0.3806,-0.3806,-0.3805,0,0,-0.3506,-0.3525,-0.356,-0.3579,-0.3608,-0.362,-0.3628,-0.3658,-0.3668,-0.371,-0.3711,-0.3738,-0.3791,-0.3811,-0.3829,-0.3879,-0.3879,-0.3888,-0.391,-0.3936,-0.3942,-0.3947,-0.3965,-0.3971,-0.3893,-0.3893,-0.3893,0,-0.3521,-0.3568,-0.3577,-0.3611,-0.363,-0.363,-0.3665,-0.3684,-0.3722,-0.3735,-0.3726,-0.3792,-0.3811,-0.3862,-0.3874,-0.3888,-0.3898,-0.3885,-0.394,-0.3945,-0.395,-0.3967,-0.3974,-0.3894,-0.3894,-0.3894,-0.3893,0,-0.3585,-0.3617,-0.3641,-0.3677,-0.3698,-0.3732,-0.3748,-0.3768,-0.3772,-0.3785,-0.3828,-0.3851,-0.3886,-0.3898,-0.3902,-0.3949,-0.3944,-0.3937,-0.3922,-0.3957,-0.3974,-0.3981,-0.3895,-0.3895,-0.3895,-0.3894,0,0,-0.3635,-0.3675,-0.3684,-0.3701,-0.3733,-0.3758,-0.3792,-0.3825,-0.3843,-0.3868,-0.3898,-0.3942,-0.3936,-0.3955,-0.3962,-0.3985,-0.4023,-0.3975,-0.3976,-0.3984,-0.4077,-0.4082,-0.409,-0.4023,-0.4024,-0.4025,-0.4075,0,-0.3682,-0.3742,-0.3752,-0.3805,-0.3835,-0.3836,-0.3865,-0.3888,-0.3901,-0.3928,-0.3943,-0.3974,-0.3963,-0.3975,-0.3998,-0.4014,-0.4042,-0.401,-0.4051,-0.4052,-0.4044,-0.4099,-0.4104,-0.415,-0.4081,-0.4083,-0.4083,0,-0.3745,-0.3772,-0.3828,-0.3856,-0.3869,-0.3895,-0.3927,-0.3952,-0.3979,-0.3986,-0.4008,-0.4012,-0.4047,-0.4029,-0.4079,-0.4057,-0.4073,-0.4084,-0.4086,-0.4091,-0.407,-0.4106,-0.4165,-0.4172,-0.4094,-0.4093,-0.4092,0,-0.3777,-0.3827,-0.3867,-0.3881,-0.3914,-0.3933,-0.3948,-0.3973,-0.3992,-0.4019,-0.4032,-0.4063,-0.408,-0.4104,-0.4117,-0.4102,-0.4165,-0.4148,-0.4173,-0.4173,-0.4187,-0.4186,-0.4251,-0.4197,-0.4196,-0.4196,-0.4196,0,-0.3829,-0.3863,-0.3882,-0.3907,-0.3945,-0.3955,-0.3993,-0.4008,-0.403,-0.4057,-0.406,-0.4086,-0.41,-0.4128,-0.4138,-0.4177,-0.4185,-0.4192,-0.4195,-0.4193,-0.4192,-0.4204,-0.4202,-0.4198,-0.4198,-0.4197,-0.4197,0,-0.3871,-0.3885,-0.3929,-0.3956,-0.3964,-0.3991,-0.4015,-0.404,-0.4052,-0.4087,-0.4096,-0.4115,-0.4148,-0.4163,-0.4203,-0.421,-0.4255,-0.4255,-0.4247,-0.4247,-0.4272,-0.4269,-0.4347,-0.4358,-0.4296,-0.4297,-0.4297,0,-0.3903,-0.393,-0.396,-0.3979,-0.3994,-0.4024,-0.4044,-0.4055,-0.4075,-0.4107,-0.4127,-0.416,-0.4187,-0.424,-0.4258,-0.429,-0.429,-0.4316,-0.4295,-0.4292,-0.4292,-0.429,-0.4293,-0.432,-0.432,-0.4321,-0.4321,0,-0.396,-0.3965,-0.3993,-0.4024,-0.4047,-0.4072,-0.4096,-0.4111,-0.4126,-0.4149,-0.4182,-0.4203,-0.4245,-0.4278,-0.431,-0.4326,-0.4326,-0.4327,-0.4335,-0.4333,-0.4327,-0.4331,-0.4257,-0.4326,-0.4325,-0.4325,-0.4325,-0.4324,-0.3999,-0.4022,-0.4047,-0.4078,-0.4098,-0.412,-0.4144,-0.4159,-0.4187,-0.4222,-0.4227,-0.4263,-0.4288,-0.4331,-0.4348,-0.4377,-0.4371,-0.4381,-0.4384,-0.4387,-0.4389,-0.4322,-0.4383,-0.4383,-0.4382,-0.4382,-0.4382,0,-0.4055,-0.4072,-0.41,-0.4133,-0.4158,-0.4156,-0.4182,-0.4203,-0.4235,-0.4258,-0.4284,-0.4323,-0.4355,-0.4375,-0.4408,-0.4427,-0.4428,-0.4435,-0.4434,-0.4437,-0.4392,-0.4383,-0.4433,-0.4433,-0.4433,-0.4433,-0.4433,-0.4433,-0.4088,-0.4128,-0.4136,-0.4185,-0.4201,-0.4237,-0.4252,-0.4273,-0.4291,-0.4334,-0.4361,-0.4374,-0.4396,-0.443,-0.4459,-0.4464,-0.4476,-0.4484,-0.4488,-0.4446,-0.4441,-0.4436,-0.4427,-0.4486,-0.4486,-0.4531,-0.4532,-0.4532]}]]